Spencer, IA

6:45 PM CDT on May 28, 2017 (GMT -0500)
Spencer Municipal

Weather History for KSPW - November, 2012

Change the Weather History Date:

Saturday, November 17, 2012

  Actual Average Record
Temperature  
Mean Temperature 45 °F -  
Max Temperature 57 °F 43 °F 70 °F (1979)
Min Temperature 33 °F 25 °F 1 °F (2005)
Degree Days  
Heating Degree Days 20    
Moisture  
Dew Point 32 °F    
Average Humidity 61    
Maximum Humidity 85    
Minimum Humidity 39    
Precipitation  
Precipitation 0.00 in - - ()
Sea Level Pressure  
Sea Level Pressure 30.23 in    
Wind  
Wind Speed 13 mph (SSE)    
Max Wind Speed 22 mph    
Max Gust Speed 31 mph    
Visibility 10 miles    
Events      
Averages and records for this station are not official NWS values.
T = Trace of Precipitation, MM = Missing Value Source: NWS Daily Summary

Daily Weather History Graph

Daily Weather History Graph

Search for Another Location

Airport or City:

Trip Planner

Search our weather history database for the weather conditions in past years. The results will help you decide how hot, cold, wet, or windy it might be!

Date:

Astronomy

Nov. 17, 2012 Rise Set
Actual Time 7:16 AM CST 4:54 PM CST
Civil Twilight 6:45 AM CST 5:25 PM CST
Nautical Twilight 6:11 AM CST 6:00 PM CST
Astronomical Twilight 5:37 AM CST 6:33 PM CST
Moon 11:02 AM CST (11/17) 9:06 PM CST (11/17)
Length of Visible Light 10h 39m
Length of Day
9h 37m
Waxing Crescent, 20% of the Moon is Illuminated
Nov 17
Waxing Crescent
Nov 20
First Quarter
Nov 28
Full
Dec 6
Last Quarter
Dec 13
New

Hourly Weather History & Observations

Time (CST) Temp. Windchill Dew Point Humidity Pressure Visibility Wind Dir Wind Speed Gust Speed Precip Events Conditions
12:53 AM 33.1 °F 26.1 °F 28.0 °F 82% 30.32 in 10.0 mi SSE 8.1 mph - N/A   Clear
1:53 AM 34.0 °F 27.2 °F 28.0 °F 79% 30.31 in 10.0 mi SSE 8.1 mph - N/A   Clear
2:53 AM 35.1 °F 27.9 °F 28.9 °F 78% 30.30 in 10.0 mi SSE 9.2 mph - N/A   Clear
3:53 AM 36.0 °F 29.0 °F 30.0 °F 79% 30.29 in 10.0 mi SSE 9.2 mph - N/A   Clear
4:53 AM 36.0 °F 28.0 °F 30.0 °F 79% 30.29 in 10.0 mi SSE 11.5 mph - N/A   Clear
5:53 AM 35.1 °F 26.4 °F 30.0 °F 82% 30.29 in 9.0 mi SSE 12.7 mph - N/A   Clear
6:53 AM 34.0 °F 25.5 °F 30.0 °F 85% 30.29 in 8.0 mi SSE 11.5 mph - N/A   Clear
7:53 AM 35.1 °F 27.9 °F 30.9 °F 85% 30.30 in 7.0 mi SSE 9.2 mph - N/A   Clear
8:53 AM 39.0 °F 31.0 °F 33.1 °F 79% 30.29 in 8.0 mi South 13.8 mph - N/A   Clear
9:53 AM 44.1 °F 36.8 °F 35.1 °F 71% 30.28 in 10.0 mi SSE 16.1 mph - N/A   Clear
10:53 AM 52.0 °F - 37.0 °F 57% 30.27 in 10.0 mi South 17.3 mph 23.0 mph N/A   Clear
11:53 AM 57.0 °F - 35.1 °F 44% 30.23 in 10.0 mi South 21.9 mph 31.1 mph N/A   Mostly Cloudy
12:53 PM 57.0 °F - 34.0 °F 42% 30.21 in 10.0 mi South 20.7 mph - N/A   Overcast
1:53 PM 57.9 °F - 33.1 °F 39% 30.19 in 10.0 mi South 20.7 mph 27.6 mph N/A   Mostly Cloudy
2:53 PM 57.9 °F - 33.1 °F 39% 30.17 in 10.0 mi South 18.4 mph 27.6 mph N/A   Mostly Cloudy
3:53 PM 57.0 °F - 32.0 °F 39% 30.17 in 10.0 mi South 21.9 mph 27.6 mph N/A   Partly Cloudy
4:53 PM 55.0 °F - 33.1 °F 43% 30.16 in 10.0 mi SSE 16.1 mph - N/A   Clear
5:53 PM 54.0 °F - 33.1 °F 45% 30.17 in 10.0 mi SSE 17.3 mph 26.5 mph N/A   Overcast
6:53 PM 52.0 °F - 33.1 °F 49% 30.19 in 10.0 mi South 17.3 mph - N/A   Overcast
7:53 PM 52.0 °F - 33.1 °F 49% 30.19 in 10.0 mi South 18.4 mph 24.2 mph N/A   Overcast
8:53 PM 50.0 °F - 33.1 °F 52% 30.18 in 10.0 mi South 18.4 mph - N/A   Clear
9:53 PM 48.9 °F - 32.0 °F 52% 30.17 in 10.0 mi South 19.6 mph - N/A   Clear
10:53 PM 48.0 °F - 32.0 °F 54% 30.16 in 10.0 mi South 19.6 mph - N/A   Clear
11:53 PM 46.0 °F 39.3 °F 32.0 °F 58% 30.16 in 10.0 mi South 16.1 mph - N/A   Clear